TimeEST,TemperatureF,Dew PointF,Humidity,Sea Level PressureIn,VisibilityMPH,Wind Direction,Wind SpeedMPH,Gust SpeedMPH,PrecipitationIn,Events,Conditions,WindDirDegrees,DateUTC
12:15 AM,33.8,32.0,93,30.23,10.0,Calm,Calm,-,N/A,,Clear,0,2012-11-10 05:15:00
12:35 AM,35.6,33.8,93,30.23,10.0,Calm,Calm,-,N/A,,Clear,0,2012-11-10 05:35:00
12:55 AM,35.6,32.0,87,30.23,10.0,Calm,Calm,-,N/A,,Clear,0,2012-11-10 05:55:00
1:15 AM,33.8,32.0,93,30.23,10.0,Calm,Calm,-,N/A,,Clear,0,2012-11-10 06:15:00
1:35 AM,33.8,32.0,93,30.23,10.0,Calm,Calm,-,N/A,,Clear,0,2012-11-10 06:35:00
1:55 AM,33.8,32.0,93,30.23,10.0,Calm,Calm,-,N/A,,Clear,0,2012-11-10 06:55:00
2:15 AM,33.8,32.0,93,30.23,10.0,Calm,Calm,-,N/A,,Clear,0,2012-11-10 07:15:00
2:35 AM,33.8,32.0,93,30.24,7.0,Calm,Calm,-,N/A,,Clear,0,2012-11-10 07:35:00
2:55 AM,32.0,32.0,100,30.24,7.0,Calm,Calm,-,N/A,,Clear,0,2012-11-10 07:55:00
3:15 AM,32.0,32.0,100,30.25,7.0,Calm,Calm,-,N/A,,Clear,0,2012-11-10 08:15:00
3:35 AM,32.0,32.0,100,30.25,7.0,Calm,Calm,-,N/A,,Clear,0,2012-11-10 08:35:00
3:55 AM,32.0,32.0,100,30.26,7.0,Calm,Calm,-,N/A,,Clear,0,2012-11-10 08:55:00
4:15 AM,32.0,32.0,100,30.26,7.0,Calm,Calm,-,N/A,,Clear,0,2012-11-10 09:15:00
4:35 AM,32.0,32.0,100,30.26,7.0,Calm,Calm,-,N/A,,Clear,0,2012-11-10 09:35:00
4:55 AM,32.0,32.0,100,30.27,7.0,Calm,Calm,-,N/A,,Clear,0,2012-11-10 09:55:00
5:15 AM,33.8,32.0,93,30.28,7.0,Calm,Calm,-,N/A,,Clear,0,2012-11-10 10:15:00
5:35 AM,33.8,32.0,93,30.28,7.0,Calm,Calm,-,N/A,,Clear,0,2012-11-10 10:35:00
5:55 AM,32.0,32.0,100,30.29,5.0,Calm,Calm,-,N/A,,Clear,0,2012-11-10 10:55:00
6:15 AM,33.8,32.0,93,30.29,7.0,Calm,Calm,-,N/A,,Clear,0,2012-11-10 11:15:00
6:35 AM,32.0,32.0,100,30.29,7.0,Calm,Calm,-,N/A,,Clear,0,2012-11-10 11:35:00
6:55 AM,33.8,32.0,93,30.31,5.0,Calm,Calm,-,N/A,,Clear,0,2012-11-10 11:55:00
7:35 AM,35.6,33.8,93,30.32,7.0,Calm,Calm,-,N/A,,Clear,0,2012-11-10 12:35:00
7:55 AM,39.2,35.6,87,30.33,10.0,Calm,Calm,-,N/A,,Clear,0,2012-11-10 12:55:00
8:15 AM,42.8,35.6,76,30.33,10.0,Calm,Calm,-,N/A,,Clear,0,2012-11-10 13:15:00
8:35 AM,42.8,35.6,76,30.33,7.0,Calm,Calm,-,N/A,,Clear,0,2012-11-10 13:35:00
8:55 AM,44.6,35.6,71,30.33,10.0,Calm,Calm,-,N/A,,Mostly Cloudy,0,2012-11-10 13:55:00
9:15 AM,44.6,37.4,76,30.32,10.0,Calm,Calm,-,N/A,,Scattered Clouds,0,2012-11-10 14:15:00
9:35 AM,46.4,37.4,71,30.33,10.0,Calm,Calm,-,N/A,,Scattered Clouds,0,2012-11-10 14:35:00
9:55 AM,46.4,37.4,71,30.33,10.0,Calm,Calm,-,N/A,,Overcast,0,2012-11-10 14:55:00
10:35 AM,51.8,35.6,54,30.34,10.0,Calm,Calm,-,N/A,,Overcast,0,2012-11-10 15:35:00
10:55 AM,51.8,37.4,58,30.34,10.0,Calm,Calm,-,N/A,,Overcast,0,2012-11-10 15:55:00
11:15 AM,53.6,37.4,54,30.33,10.0,Calm,Calm,-,N/A,,Mostly Cloudy,0,2012-11-10 16:15:00
11:35 AM,53.6,37.4,54,30.32,10.0,SSW,3.5,-,N/A,,Overcast,210,2012-11-10 16:35:00
11:55 AM,53.6,35.6,51,30.31,10.0,SW,3.5,-,N/A,,Overcast,230,2012-11-10 16:55:00
12:15 PM,55.4,35.6,47,30.31,10.0,Calm,Calm,-,N/A,,Overcast,0,2012-11-10 17:15:00
12:35 PM,55.4,37.4,51,30.31,10.0,SW,3.5,-,N/A,,Overcast,230,2012-11-10 17:35:00
12:55 PM,55.4,35.6,47,30.31,10.0,Calm,Calm,-,N/A,,Overcast,0,2012-11-10 17:55:00
1:15 PM,57.2,35.6,44,30.30,10.0,Calm,Calm,-,N/A,,Overcast,0,2012-11-10 18:15:00
1:35 PM,57.2,35.6,44,30.30,10.0,Calm,Calm,-,N/A,,Overcast,0,2012-11-10 18:35:00
1:55 PM,57.2,37.4,48,30.30,10.0,Calm,Calm,-,N/A,,Overcast,0,2012-11-10 18:55:00
2:15 PM,57.2,37.4,48,30.29,10.0,Calm,Calm,-,N/A,,Overcast,0,2012-11-10 19:15:00
2:35 PM,57.2,37.4,48,30.29,10.0,Calm,Calm,-,N/A,,Mostly Cloudy,0,2012-11-10 19:35:00
2:55 PM,57.2,37.4,48,30.31,10.0,Calm,Calm,-,N/A,,Mostly Cloudy,0,2012-11-10 19:55:00
3:15 PM,57.2,37.4,48,30.31,10.0,ESE,3.5,-,N/A,,Overcast,120,2012-11-10 20:15:00
3:35 PM,55.4,37.4,51,30.31,10.0,Calm,Calm,-,N/A,,Mostly Cloudy,0,2012-11-10 20:35:00
3:55 PM,55.4,41.0,58,30.31,10.0,SE,3.5,-,N/A,,Scattered Clouds,130,2012-11-10 20:55:00
4:15 PM,55.4,39.2,54,30.31,10.0,Calm,Calm,-,N/A,,Clear,0,2012-11-10 21:15:00
4:35 PM,53.6,37.4,54,30.32,10.0,Calm,Calm,-,N/A,,Clear,0,2012-11-10 21:35:00
4:55 PM,51.8,39.2,62,30.32,10.0,Calm,Calm,-,N/A,,Clear,0,2012-11-10 21:55:00
5:15 PM,50.0,41.0,71,30.33,10.0,Calm,Calm,-,N/A,,Clear,0,2012-11-10 22:15:00
5:35 PM,48.2,41.0,76,30.34,10.0,Calm,Calm,-,N/A,,Scattered Clouds,0,2012-11-10 22:35:00
5:55 PM,48.2,41.0,76,30.34,10.0,Calm,Calm,-,N/A,,Scattered Clouds,0,2012-11-10 22:55:00
6:15 PM,48.2,41.0,76,30.35,10.0,Calm,Calm,-,N/A,,Scattered Clouds,0,2012-11-10 23:15:00
6:35 PM,46.4,41.0,81,30.35,10.0,Calm,Calm,-,N/A,,Scattered Clouds,0,2012-11-10 23:35:00
6:55 PM,46.4,39.2,76,30.36,10.0,Calm,Calm,-,N/A,,Clear,0,2012-11-10 23:55:00
7:15 PM,44.6,41.0,87,30.36,10.0,Calm,Calm,-,N/A,,Clear,0,2012-11-11 00:15:00
7:35 PM,42.8,39.2,87,30.36,10.0,Calm,Calm,-,N/A,,Clear,0,2012-11-11 00:35:00
7:55 PM,42.8,39.2,87,30.36,7.0,Calm,Calm,-,N/A,,Clear,0,2012-11-11 00:55:00
8:15 PM,42.8,39.2,87,30.37,7.0,Calm,Calm,-,N/A,,Clear,0,2012-11-11 01:15:00
8:35 PM,41.0,37.4,87,30.38,7.0,Calm,Calm,-,N/A,,Clear,0,2012-11-11 01:35:00
8:55 PM,41.0,37.4,87,30.39,7.0,Calm,Calm,-,N/A,,Clear,0,2012-11-11 01:55:00
9:15 PM,41.0,37.4,87,30.39,5.0,Calm,Calm,-,N/A,,Clear,0,2012-11-11 02:15:00
9:35 PM,41.0,37.4,87,30.40,7.0,Calm,Calm,-,N/A,,Clear,0,2012-11-11 02:35:00
10:15 PM,41.0,37.4,87,30.40,7.0,Calm,Calm,-,N/A,,Scattered Clouds,0,2012-11-11 03:15:00
10:35 PM,41.0,37.4,87,30.40,5.0,Calm,Calm,-,N/A,,Scattered Clouds,0,2012-11-11 03:35:00
11:15 PM,39.2,37.4,93,30.40,5.0,Calm,Calm,-,N/A,,Clear,0,2012-11-11 04:15:00
11:35 PM,37.4,37.4,100,30.40,5.0,Calm,Calm,-,N/A,,Clear,0,2012-11-11 04:35:00
11:55 PM,37.4,35.6,93,30.40,5.0,Calm,Calm,-,N/A,,Clear,0,2012-11-11 04:55:00